GFSSW_2pvu_pres_132.txt.gz
Presure
128 162 186 183 184 180 176 177 172 177 182 191 197 209 227 205 179 150 142 151 139 155 160 140 143 125 137 125 131 133 111 105 142 152 135 148 159 158 168 169 224 176 210 180 172
189 179 186 184 179 174 179 178 173 171 170 180 182 187 205 219 210 181 145 134 151 138 142 146 138 139 119 131 138 125 120 139 123 148 137 141 146 147 149 182 169 183 175 176 219
190 184 184 174 175 176 175 176 169 177 169 175 167 182 188 187 212 230 186 143 132 144 139 143 144 138 144 128 125 142 134 113 134 129 127 151 131 136 153 185 178 141 190 163 161
188 185 180 179 174 179 174 171 169 168 177 170 173 187 173 188 182 210 233 185 141 135 135 140 140 142 144 137 143 168 127 110 130 131 135 151 126 160 162 153 172 177 165 232 232
187 188 182 179 179 177 172 173 174 175 178 173 170 173 171 180 182 190 209 231 187 140 135 140 141 144 142 148 144 149 128 131 129 127 131 133 146 130 159 195 155 166 168 169 148
188 185 186 181 182 180 175 179 169 170 175 178 162 169 178 169 186 178 191 207 229 194 143 147 144 141 148 143 144 134 143 128 126 114 134 135 129 134 158 182 158 144 151 195 210
186 185 189 187 180 183 183 179 183 178 170 180 172 174 176 177 173 193 189 189 207 224 189 133 135 145 138 146 144 145 133 125 123 129 143 148 141 148 153 165 170 147 179 168 170
181 183 189 190 191 185 186 187 189 174 180 175 174 179 170 180 202 194 171 178 186 210 231 162 134 134 146 150 144 142 146 140 130 134 125 129 120 160 153 135 148 160 165 182 175
183 197 190 185 190 192 187 191 186 177 179 181 184 182 174 183 196 186 185 191 179 182 210 229 166 131 149 146 151 151 141 150 123 132 140 122 149 127 119 117 149 156 160 154 195
203 192 202 198 197 201 203 192 199 193 190 184 182 183 181 189 202 198 192 219 165 175 179 209 228 182 136 152 135 147 141 149 148 135 133 133 142 148 148 117 147 147 162 142 163
186 193 195 187 216 221 212 199 207 212 200 203 212 237 244 202 209 190 209 246 223 213 178 178 208 223 155 137 157 135 149 141 143 154 124 132 130 155 138 120 124 138 148 148 142
186 185 194 205 222 203 204 210 220 205 200 217 220 218 229 218 207 195 164 238 227 229 172 173 185 204 156 151 145 161 107 156 149 152 132 149 132 153 134 145 118 146 153 149 143
204 180 191 192 188 195 205 226 217 214 210 211 210 210 214 156 213 189 199 194 170 179 217 196 173 198 199 210 189 142 133 151 140 142 138 131 133 126 140 156 126 117 122 149 161
210 191 190 192 200 203 210 215 198 217 210 216 206 196 207 160 216 182 232 220 211 173 170 180 173 168 195 197 223 190 150 141 143 150 141 146 142 156 141 144 138 161 150 143 150
196 201 203 203 204 215 225 245 241 217 216 217 202 255 245 282 227 234 222 162 152 212 146 178 171 173 177 188 194 232 175 137 136 154 127 136 142 147 146 134 164 129 119 134 143
213 216 223 226 216 220 219 227 241 219 210 215 244 250 238 268 157 224 214 204 174 204 201 204 206 214 210 195 184 192 232 132 151 152 144 155 143 135 149 142 148 153 126 148 147
199 199 201 201 212 215 217 227 237 213 210 235 249 252 284 243 226 212 209 204 199 195 205 201 144 186 191 174 190 208 198 198 149 145 162 125 128 152 135 133 142 139 126 132 149
190 194 202 203 198 190 208 223 222 218 204 281 280 285 258 231 218 210 206 204 201 199 199 192 137 180 105 175 166 189 187 217 148 128 136 127 137 155 136 154 128 117 143 141 129
184 187 192 198 205 204 190 210 219 223 246 236 245 236 232 224 215 214 209 200 200 197 197 173 182 126 184 141 172 204 189 199 154 170 149 135 152 148 132 131 147 126 118 141 139
180 180 187 194 193 200 201 186 205 217 224 247 228 231 226 224 218 214 210 214 208 194 192 183 175 207 229 167 260 331 321 191 149 170 161 148 164 158 150 141 133 148 141 152 138
197 183 192 185 189 190 196 199 182 203 220 258 240 226 223 219 216 217 217 213 202 166 174 222 225 216 209 259 242 286 323 262 230 191 154 155 142 140 153 156 145 145 128 142 149
185 178 180 191 197 188 191 194 198 171 196 206 208 208 211 206 205 201 199 164 168 213 214 209 201 216 254 250 248 364 302 283 203 188 153 156 130 165 113 189 165 147 129 152 151
203 202 183 177 178 198 191 192 192 198 192 188 192 197 195 193 190 159 166 227 228 199 186 200 257 212 263 241 260 353 175 212 161 133 167 126 161 111 130 139 153 157 139 157 138
202 211 212 190 188 184 200 196 192 191 200 196 179 176 177 170 172 205 204 191 189 212 206 205 230 223 262 236 253 285 161 277 158 219 197 156 106 140 142 138 127 159 155 142 151
184 215 220 202 179 196 208 192 197 194 195 199 198 199 217 211 208 196 185 184 200 215 218 212 208 214 262 234 232 256 268 263 243 202 207 120 167 106 133 151 180 152 147 138 115
190 225 210 212 216 221 193 205 193 195 194 190 199 199 186 199 194 188 177 209 209 215 205 216 223 195 270 229 233 274 324 244 257 208 204 184 158 189 109 176 114 140 130 147 127
211 225 215 193 214 218 212 214 194 201 196 191 194 200 199 190 185 186 206 201 223 209 199 215 244 192 199 241 231 260 264 268 256 185 211 196 192 141 177 134 170 140 155 128 137

GFSSW_2pvu_pres_138.txt.gz
Presure
125 134 192 189 191 191 188 187 181 183 179 183 180 194 205 215 244 187 162 134 139 146 144 132 128 129 130 139 139 143 138 129 131 140 141 137 145 151 155 160 154 180 170 167 155
125 178 185 163 184 185 182 181 182 185 179 169 174 179 187 199 211 236 190 153 129 143 147 146 136 130 131 142 142 134 110 154 157 136 149 131 150 152 152 169 160 173 225 250 176
124 198 187 176 189 184 178 179 180 183 182 182 178 162 179 175 188 210 231 195 132 136 141 145 146 136 131 126 132 134 137 141 126 136 145 141 159 142 158 149 136 160 151 249 222
127 191 192 174 187 189 183 180 181 182 178 181 174 173 176 166 182 184 205 231 198 130 134 140 145 142 137 122 130 136 121 107 171 144 128 158 133 145 165 176 152 159 167 235 216
136 189 197 198 176 183 186 188 184 187 183 174 182 179 186 175 171 178 184 199 235 140 137 136 142 140 148 137 136 143 145 117 125 158 154 137 140 152 149 159 155 163 179 232 216
136 200 198 190 193 186 189 190 188 188 188 188 182 179 176 178 171 170 171 186 201 233 137 132 140 148 136 150 133 139 127 144 115 140 135 130 151 120 146 149 163 166 163 165 180
189 194 195 197 200 199 193 184 185 188 190 186 190 180 178 175 179 164 175 173 184 207 227 131 138 140 145 147 142 149 127 143 124 146 120 130 138 129 142 146 165 164 165 151 223
166 164 187 198 195 187 194 201 203 204 203 200 200 189 185 187 189 172 180 187 173 189 211 182 128 135 142 154 145 146 154 157 127 154 122 124 146 138 155 142 167 163 160 195 163
161 164 182 195 199 185 190 194 195 192 214 203 215 203 195 182 184 182 170 176 174 173 191 216 168 131 139 142 143 123 150 125 153 128 128 133 124 146 131 139 147 145 161 155 162
165 184 199 216 214 207 188 190 193 200 228 200 242 200 208 207 182 176 181 175 163 196 179 192 223 160 132 151 140 150 112 163 126 141 138 134 146 146 118 139 141 151 160 142 154
194 202 206 201 205 213 218 218 193 199 202 205 231 211 211 213 202 187 189 190 172 190 204 187 197 186 156 132 154 152 147 139 147 153 134 143 138 128 148 139 135 150 156 150 183
207 209 213 212 210 207 209 213 212 206 197 217 210 209 223 220 208 210 209 200 174 197 198 176 186 202 188 164 144 149 154 146 149 159 132 144 131 155 136 119 153 168 156 140 176
206 206 209 209 209 209 209 213 223 230 234 248 252 223 212 214 211 222 220 239 227 200 202 195 174 186 211 227 163 139 150 152 149 157 156 160 149 138 145 133 119 132 159 154 143
186 185 189 192 195 200 210 211 202 219 234 244 248 241 216 213 219 212 211 223 216 214 214 203 198 176 185 213 225 169 134 150 157 155 167 145 151 138 142 140 126 163 162 152 143
174 183 192 199 177 185 198 202 214 199 218 234 247 237 215 215 214 205 214 216 219 212 222 199 207 246 184 194 214 226 171 161 163 172 153 141 142 121 129 146 147 134 156 142 149
165 169 182 175 182 200 183 192 204 211 202 226 234 224 213 213 227 194 210 205 209 203 164 195 241 234 230 178 185 207 232 174 163 161 133 139 148 129 117 156 145 131 142 144 141
195 196 199 194 193 169 192 194 190 202 210 209 228 228 208 211 241 256 249 228 206 186 214 186 206 181 194 226 201 176 201 230 175 162 142 135 145 139 155 136 153 131 125 145 122
206 218 204 195 192 204 204 187 198 191 201 213 208 236 256 320 251 245 241 259 243 232 215 143 225 223 225 167 180 226 179 195 216 174 159 142 160 144 144 144 137 153 155 156 147
196 211 191 208 204 204 199 199 193 195 193 198 212 210 233 260 289 246 242 251 240 229 228 222 220 220 152 208 187 176 208 178 201 212 169 164 134 153 139 148 145 148 149 144 134
189 186 198 193 188 188 189 188 205 209 187 197 198 210 211 224 254 267 260 247 239 227 228 176 216 214 213 209 208 181 211 175 180 198 207 175 148 136 141 153 159 148 150 138 126
185 176 192 201 203 200 185 196 202 199 211 182 197 202 205 209 239 237 241 239 236 235 226 222 218 215 210 210 211 205 205 161 169 172 187 182 182 142 149 159 142 155 155 145 139
188 193 192 202 204 222 209 200 180 189 214 222 185 200 201 200 210 239 226 226 219 221 225 218 222 222 221 218 215 213 208 210 213 168 183 194 213 184 142 142 161 158 143 145 147
169 199 190 192 189 239 227 211 184 185 195 215 221 189 202 197 207 203 207 222 224 225 225 219 218 211 216 221 217 216 209 214 209 202 196 95 116 194 132 133 157 151 153 138 135
180 190 195 198 230 250 227 227 209 201 188 203 225 214 194 203 198 206 193 201 204 203 203 203 197 193 188 189 229 212 230 255 203 206 186 212 188 211 186 144 137 150 144 154 137
186 192 206 220 282 256 231 224 216 206 203 221 213 217 189 202 199 200 212 184 190 196 193 195 180 185 206 197 237 235 266 265 238 281 194 199 190 185 208 176 151 141 156 143 141
191 205 216 230 309 257 238 225 223 205 212 215 223 217 213 204 198 196 199 208 202 207 206 214 212 205 222 245 220 222 271 229 267 104 331 167 175 97 200 188 135 131 155 139 152
193 209 218 253 240 262 239 224 221 223 218 231 222 218 216 216 201 197 192 204 204 195 195 201 201 195 214 224 222 215 245 208 220 237 252 239 187 112 177 193 185 181 140 147 160

GFSSW_2pvu_pres_141.txt.gz
Presure
118 122 124 191 192 186 182 182 192 188 184 188 189 193 202 209 230 260 182 152 129 128 135 151 140 133 143 140 139 152 136 121 171 142 140 154 143 148 163 140 157 155 239 241 224
118 122 124 191 185 180 184 189 186 187 186 173 175 170 179 185 200 220 256 181 144 127 145 138 150 143 133 149 138 145 146 149 135 142 145 149 142 159 163 155 170 200 203 229 241
117 119 171 191 180 177 190 187 179 182 180 182 182 169 169 171 180 196 217 254 173 126 128 145 149 136 136 127 147 148 120 138 147 160 154 150 148 149 153 161 162 246 205 225 151
118 123 124 193 175 173 185 188 184 182 181 183 184 181 180 170 168 179 193 218 238 150 126 136 140 150 144 135 137 145 120 131 133 134 150 153 147 145 146 151 163 158 198 225 222
144 126 123 191 193 192 182 180 183 184 181 177 180 181 176 173 173 170 183 192 221 214 134 147 139 146 148 140 146 148 131 122 153 143 131 140 145 139 148 156 167 156 193 166 166
118 147 190 195 198 204 195 194 190 190 188 189 187 187 180 180 182 171 171 182 189 221 195 132 142 143 146 137 140 131 142 143 137 129 142 149 144 135 151 153 163 159 167 176 169
126 168 160 157 185 197 193 195 202 199 188 190 191 187 185 187 180 178 175 172 181 192 223 177 127 137 141 147 140 154 136 138 149 113 139 135 144 141 143 151 155 160 154 181 175
178 166 164 165 173 192 198 191 196 199 194 206 209 196 197 198 188 182 174 176 173 187 196 224 147 129 141 140 158 149 158 140 135 138 121 131 142 145 142 147 151 156 163 167 165
171 173 171 173 191 202 210 208 203 187 184 192 200 207 207 210 195 188 189 172 176 180 184 201 217 143 133 138 148 155 151 152 155 158 114 131 137 145 151 139 146 162 159 171 190
168 173 200 203 205 205 198 208 219 220 212 188 202 216 205 225 214 197 192 177 178 186 179 187 206 169 134 143 138 146 161 151 127 148 116 148 132 147 126 138 147 149 142 161 185
213 216 219 219 218 216 215 215 227 243 247 200 202 220 210 202 241 210 201 189 175 177 184 182 192 208 163 145 137 134 149 138 154 162 119 143 140 134 131 143 149 156 170 168 188
202 198 196 194 196 200 205 212 210 209 220 235 239 201 214 217 219 216 215 192 192 177 177 176 184 195 214 158 149 131 153 147 155 153 139 135 140 123 134 152 138 165 149 144 164
176 170 170 169 171 179 187 196 204 215 200 222 244 252 244 213 207 223 212 218 192 190 196 184 197 189 198 185 165 150 143 155 161 121 141 137 138 126 155 134 118 144 153 145 182
175 172 178 177 173 182 193 197 191 196 213 201 236 250 255 240 226 217 210 210 218 225 192 182 203 188 194 200 190 164 162 146 155 134 154 155 129 149 135 141 125 130 158 149 150
209 207 202 200 197 183 172 177 200 189 198 214 213 242 252 238 207 211 212 213 216 222 239 228 201 184 176 188 201 187 167 159 163 155 142 167 172 147 137 148 135 146 154 142 154
201 202 210 214 216 208 196 191 209 196 190 196 208 215 234 230 219 213 211 213 214 218 224 217 203 206 190 180 186 199 227 171 163 161 159 150 140 148 140 157 150 135 146 140 151
182 183 186 193 201 195 213 215 204 198 193 206 197 208 221 232 214 210 213 212 208 213 214 222 212 218 170 207 177 182 198 222 193 156 147 167 162 147 144 144 146 148 145 139 141
168 190 186 189 192 200 206 200 194 196 204 193 202 197 204 228 313 208 216 230 199 208 202 211 203 217 199 209 236 225 183 198 215 202 171 145 158 139 149 143 126 152 157 137 125
183 178 179 175 191 198 196 212 207 188 188 195 208 202 202 207 223 333 254 244 244 237 242 201 206 207 191 232 228 238 172 175 198 219 229 158 136 143 140 147 147 155 147 133 146
172 181 182 184 177 189 206 193 210 225 208 198 201 192 198 204 210 226 278 246 243 254 248 240 234 230 193 181 231 176 231 195 174 181 209 208 181 135 136 149 150 141 138 144 139
176 179 177 191 193 182 194 199 207 212 226 212 191 211 206 199 208 210 272 270 254 259 235 239 224 224 226 215 228 227 159 188 194 174 181 199 221 129 143 141 146 141 135 148 130
179 161 188 189 197 189 201 205 235 255 238 227 207 186 209 208 201 209 209 259 259 253 239 235 228 226 221 222 225 222 219 177 159 187 187 181 195 214 134 142 145 142 150 156 133
191 189 184 175 181 197 198 215 232 274 262 231 226 194 203 221 206 203 204 206 241 229 239 235 230 229 229 225 224 225 224 221 219 189 219 176 196 198 138 131 144 137 151 134 148
166 180 189 186 187 199 199 225 215 242 280 232 223 213 204 192 219 194 197 201 203 208 221 226 219 222 226 221 222 225 234 263 255 241 208 193 176 212 200 200 154 148 153 160 142
176 177 188 190 191 189 219 241 227 318 266 243 226 224 209 194 208 204 196 196 202 200 201 207 207 205 207 204 205 209 219 226 238 223 228 223 167 162 175 200 181 127 141 159 145
180 186 180 202 194 205 230 237 288 278 257 243 226 218 214 229 205 225 191 196 196 205 206 195 196 200 197 205 209 212 194 216 239 251 281 269 120 96 179 170 212 188 145 151 139
176 182 194 198 201 219 238 231 288 273 276 232 229 219 209 215 210 221 219 188 195 197 204 215 211 203 209 200 204 218 238 222 225 218 237 246 279 327 233 211 183 210 180 156 155

GFSSW_2pvu_pres_144.txt.gz
Presure
117 118 120 121 137 189 192 191 186 189 189 187 190 187 197 205 215 233 262 168 146 130 135 146 135 149 142 131 138 155 139 143 141 150 133 147 153 142 160 157 178 166 194 226 229
127 121 121 122 123 188 186 181 182 182 181 181 176 181 182 183 186 204 222 255 158 148 127 136 142 146 137 136 152 148 136 119 142 141 132 150 155 147 158 162 151 181 195 227 205
127 122 127 124 120 193 184 191 189 188 183 186 186 183 174 178 177 184 197 210 249 160 135 134 144 145 151 152 133 145 164 112 144 138 137 140 157 148 156 168 156 176 169 214 231
121 127 191 188 189 167 183 173 182 190 187 185 183 183 182 178 170 172 181 193 208 207 159 133 133 139 136 114 150 138 118 112 124 133 146 141 157 150 155 167 156 180 160 166 201
130 117 118 152 196 195 194 194 192 186 183 189 184 183 182 185 182 173 170 181 191 216 208 156 131 130 139 137 144 132 144 137 131 145 135 142 136 151 151 160 159 147 183 170 186
116 121 124 155 177 154 190 202 206 197 198 191 191 189 187 186 178 169 175 174 183 194 223 151 150 132 141 139 124 149 133 133 126 167 132 150 130 152 156 155 161 156 160 187 176
179 173 170 171 163 163 165 190 188 193 200 212 198 198 195 195 191 183 185 173 182 187 199 225 147 142 128 132 100 138 122 157 169 136 150 132 155 149 147 147 156 159 155 190 178
176 169 168 172 172 174 176 201 206 210 209 193 195 203 215 199 198 193 185 182 174 181 187 201 196 157 133 132 147 140 163 150 139 122 130 126 153 144 147 147 145 152 161 190 188
172 171 170 177 187 198 205 207 206 199 209 224 207 189 196 205 218 209 203 181 176 175 182 190 211 169 140 134 139 152 122 159 160 139 153 122 142 135 164 150 140 150 162 175 194
197 203 213 215 215 216 218 217 218 218 220 227 211 225 192 203 207 231 218 193 182 172 176 188 190 210 167 153 139 127 147 150 164 159 144 137 145 169 140 147 157 155 151 157 181
204 200 192 187 185 184 185 192 199 208 216 210 220 245 221 205 207 213 243 219 191 188 171 181 185 196 212 167 154 154 141 144 150 152 152 129 154 176 137 148 156 156 168 152 169
178 174 174 172 172 172 177 181 182 186 198 217 211 227 235 241 209 207 210 242 213 192 183 169 180 188 199 204 168 157 142 149 142 154 161 138 142 137 144 144 140 156 152 154 166
181 197 196 177 186 182 174 174 184 191 198 199 214 198 240 250 252 221 218 221 229 206 183 177 177 179 187 202 187 170 164 142 152 122 138 135 134 137 153 147 148 155 149 151 156
205 204 212 209 211 214 221 209 186 182 189 211 198 214 217 238 257 254 215 210 224 215 188 190 181 182 178 187 201 186 173 165 145 156 146 145 143 130 143 160 146 132 147 151 156
188 162 192 194 193 199 204 209 217 213 209 194 200 200 211 224 244 247 232 229 225 217 216 182 185 187 169 174 188 204 181 171 168 157 144 134 143 139 137 132 141 132 144 149 157
182 182 184 192 184 189 187 199 207 215 206 202 202 198 200 215 230 234 235 203 217 210 208 217 206 197 189 188 182 189 202 195 173 170 151 140 167 151 146 150 140 134 147 150 144
177 181 172 181 182 190 191 185 205 199 217 208 197 207 199 201 215 234 221 219 213 215 214 214 216 233 188 194 202 182 189 201 219 176 170 134 153 161 168 149 152 166 155 144 138
181 181 187 173 174 174 178 181 195 194 204 206 213 221 204 207 206 212 236 213 212 216 215 211 214 220 221 199 204 170 178 190 202 219 180 173 156 172 158 159 156 168 133 145 119
163 173 163 188 191 186 183 184 203 194 199 201 228 225 225 208 197 209 212 245 213 217 221 206 213 212 214 218 210 208 180 179 186 203 230 182 174 140 138 145 156 128 148 143 147
163 169 173 173 171 181 187 189 185 190 201 216 216 244 229 216 212 195 212 215 283 254 249 239 201 207 213 210 210 197 199 201 182 181 194 221 219 146 169 146 153 138 136 150 146
170 171 177 174 176 181 179 177 189 197 206 203 212 224 244 220 204 214 199 212 219 268 241 247 256 240 192 183 211 175 197 225 224 179 181 190 216 199 194 145 146 155 134 143 139
147 157 179 174 174 180 184 194 201 191 206 235 218 238 264 226 203 197 217 203 209 265 265 247 240 247 242 239 235 169 163 210 233 233 223 173 181 212 228 147 137 133 157 150 136
156 159 185 171 177 179 184 186 198 195 214 237 244 265 268 235 212 191 194 215 204 206 266 256 256 241 237 245 231 231 234 183 209 213 225 222 183 180 200 153 148 142 149 155 150
169 172 172 172 171 170 180 180 195 200 210 234 238 278 271 238 218 206 193 215 201 204 200 227 237 247 245 239 228 228 235 223 231 222 222 179 214 213 181 195 143 161 142 158 145
161 173 171 159 185 181 171 193 191 201 211 236 233 287 270 243 228 210 203 188 212 199 205 203 224 232 232 224 224 228 226 223 225 230 236 243 209 189 196 189 213 143 144 136 157
163 179 165 151 173 191 179 196 201 198 213 229 244 295 262 250 230 218 210 211 192 212 202 205 208 212 213 214 219 222 217 218 224 226 219 231 251 258 232 200 102 223 151 145 141
162 176 181 188 182 187 203 193 212 212 231 227 218 295 268 246 241 225 221 209 215 215 208 201 203 207 203 208 209 206 207 210 210 218 218 228 225 235 287 256 211 156 226 159 134

GFSSW_2pvu_pres_147.txt.gz
Presure
166 146 124 123 124 118 125 194 193 199 193 191 189 191 191 199 202 211 221 257 163 159 151 135 131 144 146 123 124 160 158 123 152 126 133 153 146 143 164 155 159 164 228 276 220
123 126 124 128 119 160 185 191 188 185 189 181 183 183 182 180 182 192 202 214 247 190 162 150 137 138 148 137 133 137 171 148 128 149 143 147 148 162 150 157 176 149 148 297 319
124 125 129 117 121 155 171 196 187 175 173 185 184 179 184 181 176 175 182 198 208 241 185 158 146 128 140 140 154 174 137 135 125 134 145 139 144 157 162 156 166 187 173 196 232
120 125 119 119 124 160 192 199 196 182 177 190 187 186 186 184 174 173 174 183 193 208 241 163 154 132 137 150 121 139 133 174 120 141 149 140 140 153 158 159 149 166 187 184 175
190 156 121 126 133 189 195 207 207 202 200 193 193 189 187 180 180 175 171 173 182 195 206 231 167 155 135 131 139 140 170 148 133 135 141 145 141 152 155 161 165 166 185 173 175
187 174 155 177 171 170 166 162 163 175 197 212 204 198 191 188 184 186 175 178 176 181 192 215 169 167 153 136 143 164 176 127 135 118 155 130 136 143 150 149 162 162 170 205 183
132 120 126 179 173 168 169 169 172 174 194 199 191 193 208 199 193 183 182 173 178 180 188 196 220 173 135 134 158 132 138 138 133 162 140 142 144 146 149 154 155 164 159 180 173
179 175 172 173 169 172 198 211 217 215 215 205 218 222 197 196 206 194 188 185 173 178 181 190 203 195 168 158 103 114 159 152 147 164 137 141 163 133 142 146 152 158 156 167 171
210 214 216 217 220 216 213 209 211 213 220 226 226 211 230 192 202 210 200 197 185 183 177 188 190 206 177 159 153 149 167 152 142 137 140 138 146 133 168 159 152 150 160 160 152
201 198 197 195 193 190 186 183 183 190 197 206 216 221 229 245 216 193 202 213 194 185 186 178 189 194 213 169 142 159 135 147 142 155 130 132 134 151 138 149 156 151 144 159 155
185 183 181 178 177 175 176 174 189 189 190 190 199 215 227 222 248 193 203 208 210 200 185 185 180 186 200 202 166 166 99 129 142 167 133 150 139 154 128 147 151 142 154 152 163
216 222 224 226 227 226 230 226 208 171 187 184 198 198 217 208 253 243 203 211 224 215 197 184 178 181 189 204 177 132 134 138 158 147 158 156 136 145 127 140 156 149 148 156 166
204 187 186 171 197 200 202 211 213 223 221 197 201 208 200 221 222 259 263 201 209 235 212 189 187 180 181 188 204 186 168 170 166 152 140 154 168 130 156 141 146 157 154 156 169
185 192 184 199 197 189 196 202 198 209 213 215 209 205 199 202 212 234 256 250 205 207 244 195 190 188 176 184 187 201 188 174 171 172 144 137 165 151 144 143 146 131 150 156 160
199 178 180 170 186 172 193 185 194 202 193 207 220 200 204 198 207 217 238 250 243 210 218 222 203 194 177 175 184 186 199 202 180 173 174 138 161 149 147 151 154 133 149 151 157
164 180 179 176 182 184 185 189 190 194 202 210 207 206 215 212 202 208 218 232 243 224 209 218 210 203 187 180 182 179 186 198 177 184 177 140 159 128 140 143 136 141 140 149 156
172 176 173 177 177 179 180 186 175 187 202 201 205 220 231 238 224 210 210 229 232 225 212 219 214 215 189 194 185 187 178 183 197 213 188 166 160 137 139 145 151 137 141 150 157
165 173 165 167 168 179 173 175 177 187 197 189 200 215 214 226 251 206 207 212 233 219 217 212 210 206 204 179 191 176 170 175 175 196 222 191 181 151 160 152 148 136 145 150 155
170 168 163 165 178 185 176 178 177 178 185 193 206 206 223 239 230 241 211 205 214 232 213 213 212 219 210 215 221 203 196 168 198 183 194 229 155 151 150 159 172 159 152 147 142
163 164 167 168 177 176 170 186 181 179 177 192 195 204 222 243 217 250 221 212 206 214 267 208 211 219 212 211 212 219 201 195 200 216 187 192 235 200 140 149 153 169 158 145 145
158 168 168 164 167 168 158 170 179 189 180 182 196 197 212 239 237 259 253 210 204 210 216 263 251 222 232 209 215 213 217 206 204 209 178 181 190 238 185 164 144 154 155 156 151
153 160 170 163 168 176 178 179 177 191 182 181 190 199 207 233 232 283 262 235 214 199 212 217 262 241 250 205 209 214 214 207 221 206 176 187 178 186 205 140 157 176 158 153 151
154 154 162 166 161 162 172 180 181 184 183 181 207 200 208 234 235 287 267 246 205 218 199 214 245 257 242 245 241 217 210 207 211 213 195 206 213 180 183 213 140 176 155 148 146
150 163 156 169 163 160 168 170 177 185 191 200 194 208 204 220 233 278 273 242 230 198 212 203 213 271 262 249 246 240 235 213 197 216 166 195 235 226 179 184 175 139 170 152 161
147 151 159 159 163 167 161 170 176 189 195 199 200 202 203 223 238 222 277 245 232 213 198 216 209 210 252 268 254 243 237 241 231 231 225 191 210 233 229 195 178 214 137 156 154
162 153 152 169 160 148 170 174 180 201 198 201 211 207 214 229 237 225 290 252 239 227 201 197 218 214 207 239 238 250 236 240 231 235 235 242 202 191 237 233 186 175 213 227 142
157 169 165 163 163 164 170 167 188 207 210 221 220 217 220 227 236 217 300 260 241 231 215 208 200 217 208 206 227 231 236 235 235 231 230 234 238 200 249 244 184 233 185 221 220